Tracking 19176 objects as of 25-May-2018
HD Live streaming from Space Station
objects crossing your sky now

ASTRA 2B

Track ASTRA 2B now!
ASTRA 2B is classified as:


NORAD ID: 26494
Int'l Code: 2000-054A
Perigee: 35,742.3 km
Apogee: 35,751.2 km
Inclination: 2.9 °
Period: 1,433.7 minutes
Semi major axis: 42117 km
RCS: 17 m2 (large)
Launch date: September 14, 2000
Source: SOCIETE EUROPEENNE DES SATELLITES (SES)
Launch site: FRENCH GUIANA (FRGUI)

Direct-to-home; broadcasting, multimedia; 30 Ku-band for first five years, 28 after; UK and Ireland.
aabbcc
Your satellite tracking list
Your tracking list is empty




NASA's NSSDC Master Catalog

Two Line Element Set (TLE):
1 26494U 00054A   18145.13257319  .00000029  00000-0  00000+0 0  9994
2 26494   2.9167  77.7113 0001063  53.7874 161.5932  1.00439626 64707
Source of the keplerian elements: AFSPC